sat.trackr.live / text

‹ back to catalog

STARLINK-31643

NORAD 59388 · 2024-062Q

PAYLOAD ACTIVE UNKNOWN

§ Identity

Operator
Country
US
Launch date
2024-04-02
Launch site
AFWTR
Launch vehicle
Mass (kg)
RCS (m²)

Purposes: comms

External: N2YO · Heavens-Above · Gunter

§ Orbital elements

Epoch: 2026-05-25T04:00:03.998880Z

Period
93.90 min
Inclination
53.1598°
Eccentricity
0.0001605
Mean motion
15.33524330 rev/d
Perigee alt
464.2 km
Apogee alt
466.4 km
Semi-major
6,843.4 km
B*
1.2876e-3
RAAN
260.5574°
Arg perigee
94.3555°
Mean anomaly
85.4168°
Rev number
590

§ Raw data

STARLINK-316431 59388U 24062Q   26145.16671295  .00042179  00000+0  12876-2 0  99902 59388  53.1598 260.5574 0001605  94.3555  85.4168 15.33524330  5903

JSON: /api/v1/satellites/59388 · /tle

For live sub-satellite position, see the globe view (requires WebGL).

§ Visibility from observer

Set your observer location to see the next 7 days of passes ≥ 10°. The values pass through the URL so the page stays shareable.

No JS? Fill the form by hand. The geolocation button needs JavaScript.